Location: Ancey
(47.3293°N, 4.8268°E)
Time: 09:55:25
(UTC+00:00)

Daily predictions for brighter satellites

Satellite Brightness Start Highest point End
(mag) Time Altitude Azimuth Time Altitude Azimuth Time Altitude Azimuth
Cosmos 1850 Rocket 4.0 17:02:09 10° NNW 17:07:29 80° ENE 17:12:48 10° SSE
Cosmos 2369 Rocket 3.4 17:03:17 10° SW 17:08:39 43° NW 17:14:06 10° NNE
Cosmos 2297 Rocket 3.2 17:04:40 10° N 17:09:25 26° NE 17:14:07 10° ESE
Cosmos 1939 Rocket 3.5 17:06:52 10° SE 17:10:27 33° ENE 17:14:00 10° N
NOAA 12 4.3 17:08:16 10° SSE 17:13:34 83° WSW 17:18:55 10° NNW
COSMO-SKYMED 1 3.4 17:10:03 10° NNE 17:13:55 30° E 17:17:46 10° SSE
Cosmos 304 Rocket 4.3 17:10:08 10° SSW 17:14:53 65° WNW 17:19:40 10° NNE
FALCON 9 DEB 4.1 17:12:43 10° W 17:15:58 38° NNW 17:19:12 10° ENE
Cosmos 1452 Rocket 3.6 17:10:48 10° SSW 17:16:04 88° WNW 17:21:24 10° NNE
Cosmos 1689 Rocket 3.3 17:14:23 10° NE 17:16:43 22° E 17:19:02 10° SSE
Okean O Rocket 2.1 17:12:54 10° S 17:17:15 67° WSW 17:21:36 10° NNW
Aureole 3 Rocket 4.3 17:15:32 10° SE 17:18:24 20° E 17:21:53 10° NE
H-2A R/B 3.3 17:16:25 10° ESE 17:20:29 22° ENE 17:24:35 10° N
H-2A R/B 3.2 17:17:27 10° N 17:21:29 45° WNW 17:25:24 10° SW
Cosmos 1328 3.7 17:17:44 10° N 17:21:43 85° E 17:25:39 10° S
Cosmos 2098 Rocket 4.1 17:20:36 10° NNW 17:23:34 34° W 17:26:15 10° SSW
IRS-1C Rocket 4.2 17:20:17 10° SSE 17:25:25 57° ENE 17:30:36 10° N
ADEOS Rocket 3.8 17:19:27 10° N 17:25:35 62° WNW 17:32:23 10° SSW
Cosmos 1340 3.9 17:23:06 10° NNE 17:26:05 21° ENE 17:29:02 10° ESE
Cosmos 1356 Rocket 4.1 17:22:17 10° SSW 17:26:30 61° WNW 17:30:47 10° N
Cosmos 1825 Rocket 3.5 17:23:35 10° N 17:28:03 67° E 17:32:27 10° SSE
CZ-4 R/B 2.1 17:24:47 10° SE 17:28:11 29° ENE 17:31:33 10° N
ERS-2 2.2 17:25:08 10° NNE 17:28:47 79° WNW 17:32:25 10° SSW
BREEZE-M DEB (TANK) 4.2 17:27:12 10° W 17:30:45 66° N 17:42:44 11° ENE
YAOGAN 1 3.3 17:28:13 10° SE 17:32:00 30° ENE 17:35:48 10° N
USA 281 4.1 17:26:27 10° S 17:32:50 53° WSW 17:39:15 10° NNW
Lacrosse 5 3.0 17:29:27 10° W 17:34:07 35° NNW 17:38:47 10° NE
Cosmos 2219 3.7 17:29:41 10° NNW 17:35:06 39° NE 17:40:28 10° ESE
ERBS 4.2 17:32:23 10° WNW 17:35:07 22° NNW 17:37:51 10° NE
Meteor 2-21 Rocket 4.4 17:29:31 10° N 17:35:44 69° E 17:41:49 10° SSE
CZ-4B R/B 1.9 17:36:55 10° N 17:40:09 60° WNW 17:43:17 10° SSW
SAR-Lupe-4 3.5 17:37:02 10° NNE 17:40:39 77° ESE 17:44:14 10° S
Cosmos 1400 Rocket 3.6 17:38:39 10° SSE 17:42:18 31° E 17:45:58 10° NNE
Cosmos 44 3.6 17:39:44 10° S 17:43:54 39° ESE 17:47:38 14° NE
USA 305 3.9 17:40:10 10° WNW 17:44:07 34° N 17:46:51 17° ENE
Okean-O 2.8 17:40:56 10° SE 17:45:13 51° ENE 17:49:32 10° N
Cosmos 1726 Rocket 3.5 17:41:01 10° S 17:45:17 60° E 17:49:36 10° NNE
Cosmos 1758 Rocket 4.1 17:40:55 10° NNW 17:45:18 63° W 17:49:37 10° S
CZ-4C R/B 4.3 17:42:35 10° NW 17:47:03 20° N 17:52:05 10° NE
USA 306 3.9 17:46:26 10° WNW 17:50:24 35° N 17:52:49 19° ENE
Cosmos 1745 Rocket 4.5 17:48:10 10° N 17:53:57 37° ENE 17:59:45 10° SE
Aureole 3 2.9 17:54:54 10° S 17:58:06 44° E 18:00:42 12° NNE
SAR-Lupe-1 4.3 17:54:45 10° N 17:58:21 71° WNW 18:01:55 10° SSW
FALCON 9 DEB 4.0 17:56:43 10° SSW 17:59:32 28° SE 17:59:55 27° SE
Cosmos 1606 Rocket 3.7 17:55:19 10° SSW 17:59:40 77° W 18:04:05 10° N
Cosmos 1331 Rocket 3.9 17:54:31 10° SSW 17:59:42 87° ESE 18:04:53 10° NNE
SKYMED 2 3.6 17:57:47 10° NNE 18:02:10 88° WNW 18:06:30 10° SSW
Cosmos 2228 3.4 17:59:47 10° SSW 18:03:59 65° W 18:08:15 10° N
GENESIS II 4.2 18:00:19 10° SSW 18:04:20 77° SE 18:07:02 20° NE
ATLAS 5 CENTAUR R/B 3.9 18:01:49 10° WNW 18:04:57 19° NNW 18:08:24 10° NNE
Cosmos 1244 Rocket 4.4 18:00:04 10° N 18:06:17 82° E 18:12:31 10° S
SL-4 R/B 2.5 18:03:03 10° WNW 18:06:29 42° N 18:08:01 27° NE
NOSS 2-2 (D) 4.4 18:01:38 10° NW 18:07:03 72° NE 18:13:51 13° SE
FALCON 9 DEB 3.7 18:04:10 10° SSW 18:07:06 33° SE 18:07:15 33° SE
CZ-2C R/B 3.3 18:02:13 10° SSE 18:07:59 68° ENE 18:13:39 10° N
Cosmos 292 Rocket 3.7 18:04:04 10° SSW 18:08:51 81° ESE 18:13:42 10° NNE
Cosmos 1346 Rocket 3.3 18:09:07 10° N 18:12:49 35° ENE 18:12:50 35° ENE
ARGOS 3.5 18:09:08 17° SE 18:12:52 42° ENE 18:17:57 10° N
Cosmos 2227 Rocket 2.3 18:07:54 10° NNW 18:13:30 56° ENE 18:17:08 21° SE
FALCON 9 DEB 3.7 18:12:06 10° SSW 18:15:00 37° SSE 18:15:00 37° SSE
Meteor 2-10 Rocket 3.9 18:10:40 10° SSE 18:15:38 40° E 18:20:27 10° NNE
SeaSat 1 2.6 18:14:54 27° ESE 18:17:22 52° NE 18:22:11 10° NNW
Cosmos 1892 2.7 18:13:45 10° N 18:17:35 55° ENE 18:19:18 29° SE
CZ-2D R/B 3.9 18:15:58 10° S 18:19:42 56° W 18:23:28 10° NNW
USA 215 3.6 18:17:28 26° E 18:20:56 50° NNE 18:27:12 10° NW
Cosmos 1656 3.8 18:17:14 10° S 18:22:33 50° ESE 18:26:21 19° NE
Cosmos 2263 Rocket 3.8 18:20:28 10° N 18:24:05 17° NE 18:24:14 17° NE
Cosmos 968 Rocket 3.5 18:19:19 10° NNW 18:24:30 59° ENE 18:26:57 30° SE
ATLAS 2AS CENTAUR R/B 3.9 18:18:23 10° NW 18:25:00 30° NNE 18:27:53 23° ENE
CSL-04 Rocket 3.6 18:20:12 10° SSE 18:25:43 70° ENE 18:31:14 10° N
Cosmos 2058 Rocket 3.1 18:21:48 10° S 18:26:16 82° W 18:30:48 10° N
Cosmos 1302 Rocket 3.9 18:22:57 10° SSW 18:28:12 81° ESE 18:33:31 10° NNE
HJ-1C 4.0 18:30:28 44° NNE 18:30:28 44° NNE 18:32:57 10° N
FALCON 9 DEB 3.6 18:26:40 10° SW 18:29:11 43° S 18:29:11 43° S
Cosmos 1300 4.1 18:27:07 10° SSW 18:30:44 40° WNW 18:34:22 10° N
Cosmos 1486 Rocket 3.9 18:25:39 10° NNW 18:31:00 69° ENE 18:33:47 28° SE
USA 307 3.5 18:28:15 10° NW 18:32:21 42° NNE 18:32:53 40° NE
Cosmos 1697 Rocket 3.6 18:29:24 10° S 18:32:53 29° SE 18:32:53 29° SE
USA 308 3.4 18:33:00 10° NW 18:37:07 44° NNE 18:37:27 43° NNE
Helios 1A Rocket 4.3 18:33:39 10° SSW 18:37:31 39° W 18:41:24 10° NNW
Cosmos 1503 Rocket 4.1 18:35:05 10° NNW 18:40:09 49° ENE 18:40:29 48° ENE
GEOS 3 Rocket 3.9 18:36:45 21° SSE 18:40:24 69° SW 18:45:48 10° NW
DMSP B5D1-3 4.4 18:37:44 10° NNE 18:42:54 84° ESE 18:48:04 10° SSW
S3M 3.8 18:37:22 10° S 18:43:26 72° E 18:49:34 10° NNE
CRYOSAT 2 4.2 18:39:38 10° N 18:44:32 79° E 18:49:23 10° S
Cosmos 1825 4.2 18:43:21 10° N 18:44:29 18° N 18:44:29 18° N
Cosmos 1354 Rocket 4.2 18:44:40 10° NNW 18:49:38 51° NE 18:49:38 51° NE
COSMO-SKYMED 1 4.5 18:46:15 10° N 18:50:03 30° WNW 18:53:49 10° SW
Cosmos 1408 3.8 18:48:26 10° N 18:50:33 33° N 18:50:33 33° N
Cosmos 2297 Rocket 2.5 18:48:18 10° NNW 18:53:56 64° WSW 18:57:47 21° S
Cosmos 2058 3.0 18:53:56 10° NNW 18:57:58 72° W 18:57:58 72° W
MOS 1 Rocket 3.4 18:53:56 10° N 18:58:30 75° WNW 19:03:21 10° SSW
H-2A R/B 2.5 18:54:03 10° S 18:59:23 66° WSW 19:04:51 10° NNW
SL-08 RB Rocket 4.2 19:03:12 48° N 19:03:12 48° N 19:06:29 10° N
CZ-4 R/B 3.5 18:59:56 10° SSW 19:03:13 25° W 19:06:28 10° NW
YAOGAN 1 4.4 19:04:14 10° SSW 19:08:04 30° W 19:11:53 10° NNW
Timation 1 Rocket 4.4 19:02:38 10° NNW 19:08:22 58° NE 19:08:22 58° NE
Cosmos 1076 Rocket 4.4 19:08:04 10° NNW 19:10:59 42° NNW 19:10:59 42° NNW
Ariane Rocket 3.6 19:18:51 47° N 19:18:51 47° N 19:22:31 10° NNW
Lacrosse 5 3.3 19:13:54 10° NW 19:18:09 27° N 19:18:09 27° N
Cosmos 2219 4.4 19:13:57 10° NW 19:19:15 39° WSW 19:23:21 16° SSW
BREEZE-M R/B 4.0 19:17:38 10° WNW 19:22:24 82° NNE 19:23:15 70° E
USA 305 4.3 19:20:21 10° WNW 19:23:00 36° NW 19:23:00 36° NW
Cosmos 2082 3.8 19:24:37 10° NNW 19:30:17 71° WSW 19:30:17 71° WSW
Atlas Centaur 2 4.5 19:26:07 10° SW 19:31:14 21° S 19:31:14 21° S
CZ-4C R/B 3.7 19:31:37 10° NNW 19:37:16 33° NNE 19:37:16 33° NNE
ATLAS 5 CENTAUR R/B 4.4 19:49:16 10° NNW 19:51:05 13° N 19:51:05 13° N
NOSS 3-4 (A) 4.0 19:48:01 10° NW 19:53:45 60° N 19:53:45 60° N
NOSS 3-4 (C) 4.1 19:48:07 10° NW 19:53:51 59° N 19:53:51 59° N
SeaSat 1 4.2 19:54:43 26° WSW 19:55:06 26° WSW 19:59:15 10° NW
Cosmos 2227 Rocket 4.0 19:52:36 10° NW 19:57:10 26° WSW 19:59:01 22° SW
USA 215 3.5 20:04:50 63° W 20:04:50 63° W 20:10:21 10° NW
Cosmos 2263 Rocket 3.9 20:03:23 10° NNW 20:05:55 27° NNW 20:05:55 27° NNW
ATLAS 2AS CENTAUR R/B 3.4 20:09:42 10° NW 20:15:19 51° NNW 20:15:19 51° NNW
